• In Hungary
  • List of Countries
  • For 7 days
  • Water Temperature
  • Satellite Maps
  • Weather Map
  • News
  • Weather Widgets
  • user-avatar
    Login

    Hourly Weather Bolshaya Mihaylovka

    Today, 19 August, Sunday

    Time Temperature Precipitation Wind Pressure Humidity
    00:00 +16°C° 0 mm 1 mps 750 mmHg 79%
    01:00 +15°C° 0 mm 1 mps 750 mmHg 81%
    02:00 +15°C° 0 mm 1 mps 750 mmHg 83%
    03:00 +15°C° 0 mm 1 mps 750 mmHg 83%
    04:00 +15°C° 0 mm 1 mps 750 mmHg 84%
    05:00 +15°C° 0 mm 1 mps 750 mmHg 85%
    06:00 +17°C° 0 mm 2 mps 750 mmHg 78%
    07:00 +19°C° 0 mm 2 mps 750 mmHg 71%
    08:00 +21°C° 0 mm 2 mps 750 mmHg 64%
    09:00 +24°C° 0 mm 2 mps 750 mmHg 59%
    10:00 +25°C° 0 mm 2 mps 749 mmHg 54%
    11:00 +26°C° 0 mm 3 mps 749 mmHg 49%
    12:00 +26°C° 0 mm 3 mps 749 mmHg 47%
    13:00 +27°C° 0 mm 3 mps 749 mmHg 46%
    14:00 +27°C° 0 mm 3 mps 748 mmHg 45%
    15:00 +27°C° 0 mm 3 mps 748 mmHg 48%
    16:00 +26°C° 0 mm 2 mps 748 mmHg 52%
    17:00 +26°C° 0 mm 2 mps 747 mmHg 55%
    18:00 +24°C° 0 mm 2 mps 747 mmHg 60%
    19:00 +21°C° 0 mm 2 mps 747 mmHg 64%
    20:00 +19°C° 0 mm 2 mps 747 mmHg 69%
    21:00 +19°C° 0 mm 2 mps 747 mmHg 70%
    22:00 +18°C° 0 mm 2 mps 747 mmHg 72%
    23:00 +18°C° 0 mm 2 mps 747 mmHg 73%

    Tomorrow, 20 August, Monday

    Time Temperature Precipitation Wind Pressure Humidity
    00:00 +17°C° 0 mm 2 mps 747 mmHg 74%
    01:00 +17°C° 0 mm 2 mps 747 mmHg 76%
    02:00 +17°C° 0 mm 2 mps 747 mmHg 77%
    03:00 +16°C° 0 mm 2 mps 747 mmHg 78%
    04:00 +16°C° 0 mm 2 mps 747 mmHg 80%
    05:00 +16°C° 0 mm 2 mps 747 mmHg 81%
    06:00 +17°C° 0 mm 2 mps 747 mmHg 76%
    07:00 +19°C° 0 mm 2 mps 747 mmHg 71%
    08:00 +21°C° 0 mm 2 mps 747 mmHg 67%
    09:00 +24°C° 0 mm 2 mps 747 mmHg 62%
    10:00 +25°C° 0 mm 3 mps 747 mmHg 58%
    11:00 +27°C° 0 mm 3 mps 746 mmHg 54%
    12:00 +27°C° 0.4 mm 3 mps 746 mmHg 56%
    13:00 +27°C° 0.4 mm 4 mps 746 mmHg 57%
    14:00 +27°C° 0.4 mm 4 mps 745 mmHg 58%
    15:00 +27°C° 0.4 mm 3 mps 745 mmHg 62%
    16:00 +26°C° 0.4 mm 3 mps 745 mmHg 66%
    17:00 +26°C° 0.4 mm 2 mps 744 mmHg 70%
    18:00 +24°C° 0 mm 2 mps 744 mmHg 75%
    19:00 +21°C° 0 mm 2 mps 744 mmHg 80%
    20:00 +20°C° 0 mm 2 mps 744 mmHg 84%
    21:00 +19°C° 0 mm 2 mps 744 mmHg 86%
    22:00 +19°C° 0 mm 2 mps 744 mmHg 87%
    23:00 +18°C° 0 mm 2 mps 744 mmHg 89%

    Day after tomorrow, 21 August, Tuesday

    Time Temperature Precipitation Wind Pressure Humidity
    00:00 +18°C° 0 mm 2 mps 743 mmHg 90%
    01:00 +18°C° 0 mm 2 mps 743 mmHg 91%
    02:00 +17°C° 0 mm 2 mps 743 mmHg 92%
    03:00 +17°C° 0 mm 3 mps 743 mmHg 92%
    04:00 +17°C° 0 mm 3 mps 742 mmHg 92%
    05:00 +17°C° 0 mm 3 mps 742 mmHg 92%
    06:00 +19°C° 0 mm 4 mps 742 mmHg 86%
    07:00 +21°C° 0 mm 5 mps 742 mmHg 79%
    08:00 +23°C° 0 mm 6 mps 742 mmHg 72%
    09:00 +23°C° 0.5 mm 6 mps 741 mmHg 69%
    10:00 +24°C° 0.5 mm 7 mps 741 mmHg 67%
    11:00 +26°C° 0.5 mm 7 mps 741 mmHg 65%
    12:00 +26°C° 1 mm 7 mps 740 mmHg 67%
    13:00 +24°C° 1 mm 7 mps 740 mmHg 70%
    14:00 +24°C° 1 mm 7 mps 740 mmHg 72%
    15:00 +23°C° 0.3 mm 6 mps 740 mmHg 72%
    16:00 +23°C° 0.3 mm 5 mps 740 mmHg 73%
    17:00 +22°C° 0.3 mm 4 mps 740 mmHg 73%
    18:00 +20°C° 0 mm 4 mps 741 mmHg 76%
    19:00 +19°C° 0 mm 4 mps 741 mmHg 79%
    20:00 +17°C° 0 mm 3 mps 742 mmHg 82%
    21:00 +16°C° 0 mm 3 mps 742 mmHg 83%
    22:00 +14°C° 0 mm 3 mps 743 mmHg 84%
    23:00 +14°C° 0 mm 3 mps 743 mmHg 86%

    22 August, Wednesday

    Time Temperature Precipitation Wind Pressure Humidity
    00:00 +13°C° 0 mm 3 mps 744 mmHg 84%
    01:00 +12°C° 0 mm 3 mps 744 mmHg 82%
    02:00 +12°C° 0 mm 3 mps 744 mmHg 81%
    03:00 +11°C° 0 mm 3 mps 745 mmHg 82%
    04:00 +10°C° 0 mm 3 mps 745 mmHg 83%
    05:00 +10°C° 0 mm 3 mps 746 mmHg 84%
    06:00 +12°C° 0 mm 4 mps 746 mmHg 76%
    07:00 +13°C° 0 mm 4 mps 746 mmHg 69%
    08:00 +15°C° 0 mm 5 mps 747 mmHg 61%
    09:00 +16°C° 0 mm 5 mps 747 mmHg 56%
    10:00 +17°C° 0 mm 5 mps 747 mmHg 52%
    11:00 +19°C° 0 mm 5 mps 747 mmHg 47%
    12:00 +20°C° 0 mm 5 mps 748 mmHg 46%
    13:00 +20°C° 0 mm 5 mps 748 mmHg 45%
    14:00 +21°C° 0 mm 4 mps 748 mmHg 44%
    15:00 +20°C° 0 mm 4 mps 748 mmHg 48%
    16:00 +20°C° 0 mm 3 mps 748 mmHg 51%
    17:00 +19°C° 0 mm 3 mps 748 mmHg 55%
    18:00 +17°C° 0 mm 2 mps 749 mmHg 61%
    19:00 +15°C° 0 mm 2 mps 749 mmHg 67%
    20:00 +13°C° 0 mm 2 mps 750 mmHg 73%
    21:00 +13°C° 0 mm 1 mps 750 mmHg 75%
    22:00 +12°C° 0 mm 1 mps 750 mmHg 77%
    23:00 +11°C° 0 mm 1 mps 751 mmHg 79%

    23 August, Thursday

    Time Temperature Precipitation Wind Pressure Humidity
    00:00 +11°C° 0 mm 1 mps 751 mmHg 80%
    01:00 +9°C° 0 mm 0 mps 751 mmHg 81%
    02:00 +9°C° 0 mm 0 mps 751 mmHg 81%
    03:00 +9°C° 0 mm 0 mps 751 mmHg 81%
    04:00 +9°C° 0 mm 0 mps 752 mmHg 81%
    05:00 +8°C° 0 mm 0 mps 752 mmHg 81%
    06:00 +11°C° 0 mm 0 mps 752 mmHg 74%
    07:00 +14°C° 0 mm 1 mps 752 mmHg 66%
    08:00 +16°C° 0 mm 1 mps 752 mmHg 59%
    09:00 +18°C° 0 mm 1 mps 752 mmHg 54%
    10:00 +20°C° 0 mm 1 mps 752 mmHg 49%
    11:00 +21°C° 0 mm 1 mps 752 mmHg 45%
    12:00 +21°C° 0 mm 1 mps 751 mmHg 43%
    13:00 +22°C° 0 mm 1 mps 751 mmHg 42%
    14:00 +21°C° 0 mm 2 mps 751 mmHg 41%
    15:00 +22°C° 0 mm 1 mps 751 mmHg 44%
    16:00 +22°C° 0 mm 1 mps 750 mmHg 48%
    17:00 +22°C° 0 mm 1 mps 750 mmHg 52%
    18:00 +20°C° 0 mm 1 mps 750 mmHg 55%
    19:00 +17°C° 0 mm 2 mps 750 mmHg 59%
    20:00 +15°C° 0 mm 2 mps 750 mmHg 63%
    21:00 +14°C° 0 mm 2 mps 751 mmHg 64%
    22:00 +14°C° 0 mm 2 mps 751 mmHg 65%
    23:00 +13°C° 0 mm 2 mps 751 mmHg 66%

    24 August, Friday

    Time Temperature Precipitation Wind Pressure Humidity
    00:00 +13°C° 0 mm 2 mps 751 mmHg 67%
    01:00 +12°C° 0 mm 2 mps 751 mmHg 67%
    02:00 +12°C° 0 mm 2 mps 751 mmHg 68%
    03:00 +12°C° 0 mm 2 mps 751 mmHg 69%
    04:00 +10°C° 0 mm 2 mps 751 mmHg 70%
    05:00 +10°C° 0 mm 2 mps 751 mmHg 71%
    06:00 +13°C° 0 mm 2 mps 751 mmHg 66%
    07:00 +15°C° 0 mm 2 mps 751 mmHg 62%
    08:00 +18°C° 0 mm 2 mps 751 mmHg 57%
    09:00 +19°C° 0 mm 2 mps 751 mmHg 52%
    10:00 +21°C° 0 mm 3 mps 751 mmHg 48%
    11:00 +22°C° 0 mm 3 mps 750 mmHg 43%
    12:00 +22°C° 0 mm 3 mps 750 mmHg 42%
    13:00 +24°C° 0 mm 3 mps 750 mmHg 41%
    14:00 +24°C° 0 mm 3 mps 750 mmHg 40%
    15:00 +24°C° 0 mm 3 mps 749 mmHg 44%
    16:00 +23°C° 0 mm 2 mps 749 mmHg 48%
    17:00 +23°C° 0 mm 2 mps 749 mmHg 52%
    18:00 +20°C° 0 mm 2 mps 749 mmHg 57%
    19:00 +18°C° 0 mm 2 mps 749 mmHg 61%
    20:00 +16°C° 0 mm 2 mps 749 mmHg 66%
    21:00 +15°C° 0 mm 2 mps 749 mmHg 67%
    22:00 +14°C° 0 mm 2 mps 749 mmHg 68%
    23:00 +14°C° 0 mm 2 mps 749 mmHg 69%
    Show more